星链-36970(STARLINK-36970)

导读

STARLINK-36970(NORAD编号68071)是美国SpaceX公司星链(Starlink)星座中的一颗第二代低轨通信卫星,属于星链星座第二代扩容组网的组成部分。星链星座旨在通过近地轨道卫星群提供全球覆盖的高速宽带互联网服务,该卫星运行于低地球轨道,配备相控阵天线与星间激光链路技术,可实现高带宽、低延迟的数据传输,同时采用第二代介电镜面薄膜等亮度抑制技术,降低对天文观测的影响。作为星链大规模组网的卫星之一,它承担着为全球用户提供互联网接入服务的功能,助力星链网络覆盖范围与服务容量的持续扩展。

基本信息
目录编号:
68071
目录名称:
STARLINK-36970
国际标识:
2026-042C
轨道中心:
EARTH
卫星名称:
星链-36970
卫星全名:
星链-36970(STARLINK-36970)
卫星状态:
在轨 (已飞行184 天)
发射日期:
2026-03-04 UTC
国别 :
美国 (US)
星等 :
--
轨道信息
数据来源 国际轨道数据
星历时间: 2026-09-02T19:52:43+0800
1天前
查看轨道信息
半长轴: 6840.912km
偏心率: 0.0001145
轨道倾角: 53.158°
近地点辐角 88.341°
升交点赤经 74.020°
平近点角 271.772°
近地点: 461.991km
远地点: 463.559km
周期: 93.849分钟
每日圈数: 15.343759
详细信息
固有亮度:
5
最大亮度:
2.5
卫星平台:
Starlink V1.0
覆盖范围:
全球
运营商:
太空探索技术公司
运营商所在国:
美国
制造商(研发单位):
太空探索技术公司
制造商所在国:
美国
使用方式:
暂无
卫星简介
Starlink 计划是 SpaceX 推出的全球卫星互联网项目,通过发射低轨道卫星,为全球尤其是偏远地区提供高速、低延迟的互联网服务。自 2019 年起,Starlink 已部署数千颗卫星,旨在缩小全球数字鸿沟,推动互联网普及。该项目还为军事、航空等行业提供通信支持,带来广泛经济效益。
2D轨道图
3D轨道图
轨道高度分析图
轨道倾角分析图
轨道综合分析图
查看轨道综合分析图
交会数据列表
事件ID 空间交会对象 最接近时刻(TCA) 交会距离 交会风险概率(CRP) 交会风险指数(CRI) 操作
CDM_260905-094306-609706-807121
2026-09-05T
09:43:47+0000
0.215 km
中距离
5.796815E-4 高风险 0.9
CDM_260904-154506-609706-807121
2026-09-04T
15:45:12+0000
0.763 km
远距离
4.027038E-5 中风险 0.67
CDM_260829-120106-602606-807121
2026-08-29T
12:01:06+0000
0.816 km
远距离
3.301006E-5 中风险 0.65
CDM_260904-171906-609706-807121
2026-09-04T
17:19:00+0000
0.913 km
远距离
2.232545E-5 中风险 0.62
CDM_260829-143406-807106-915621
2026-08-29T
14:34:41+0000
1.033 km
极远距离
1.504286E-5 中风险 0.59
CDM_260903-025405-736906-807121
2026-09-03T
02:54:04+0000
1.630 km
极远距离
3.837928E-6 低风险 0.47
CDM_260905-111706-609706-807121
2026-09-05T
11:17:34+0000
1.647 km
极远距离
3.090087E-6 低风险 0.45
CDM_260905-081006-609706-807121
2026-09-05T
08:10:00+0000
1.786 km
极远距离
2.446762E-6 低风险 0.43
CDM_260829-133406-602606-807121
2026-08-29T
13:34:54+0000
2.146 km
极远距离
1.570112E-6 低风险 0.39
CDM_260829-160806-807106-915621
2026-08-29T
16:08:28+0000
2.339 km
极远距离
1.331796E-6 低风险 0.37